Location: Miss�
(46.9484°N, 0.1922°W)
Time: 02:45:01
(UTC+00:00)

IRS-1A Rocket - Pass Details

Date: 02 March 2021
Orbit: 851 x 931 km, 99.2° (Epoch: 12 April)

Event Time Altitude Azimuth Distance (km) Brightness Sun altitude
Exits shadow 19:46:46 26° 152° (SSE) 1,678 5.4 -21.0°
Maximum altitude 19:50:06 75° 72° (ENE) 909 4.1 -21.5°
Drops below altitude 10° 19:55:40 10° 348° (NNW) 2,513 7.0 -22.4°
Sets 19:58:02 0° 347° (NNW) 3,447 7.8 -22.8°
